1489557600.08,19789,10.19,73802.3,-4.37,-14.15,-12.97,0,*52
1489557601.35,19790,10.19,73802.8,-4.35,-14.05,-12.89,0,*56
1489557602.64,19791,10.19,73796.5,-4.35,-14.05,-13.01,0,*56
1489557603.91,19792,10.13,73798.5,-4.35,-14.01,-12.97,0,*5F
1489557605.18,19793,10.19,73798.5,-4.35,-14.01,-12.89,0,*51
1489557606.44,19794,10.13,73798.0,-4.35,-13.93,-12.83,0,*50
1489557607.74,19795,10.19,73798.5,-4.35,-13.83,-12.75,0,*59
1489557609.0,19796,10.19,73802.8,-4.35,-13.69,-12.75,0,*5E
1489557610.27,19797,10.19,73800.5,-4.35,-13.69,-12.71,0,*5B
1489557611.57,19798,10.19,73798.3,-4.35,-13.61,-12.75,0,*58
1489557612.86,19799,10.19,73796.8,-4.35,-13.61,-12.71,0,*5D
1489557614.15,19800,10.19,73792.5,-4.35,-13.61,-12.71,0,*52
1489557615.42,19801,10.19,73794.0,-4.35,-13.55,-12.61,0,*55
1489557616.68,19802,10.19,73796.5,-4.35,-13.47,-12.61,0,*55
1489557617.94,19803,10.19,73796.3,-4.35,-13.43,-12.61,0,*50
1489557619.2,19804,10.19,73790.8,-4.33,-13.29,-12.65,0,*59
1489557620.44,19805,10.19,73792.8,-4.33,-13.23,-12.57,0,*53
1489557621.68,19806,10.19,73794.8,-4.33,-13.23,-12.57,0,*50
1489557622.92,19807,10.19,73790.5,-4.33,-13.23,-12.57,0,*51
1489557624.21,19808,10.19,73796.0,-4.35,-13.29,-12.61,0,*57
1489557625.42,19809,10.19,73792.0,-4.33,-13.15,-12.43,0,*5F
1489557626.66,19810,10.19,73790.5,-4.33,-13.11,-12.53,0,*52
1489557627.88,19811,10.19,73790.8,-4.33,-12.97,-12.43,0,*5D
1489557629.12,19812,10.13,73788.0,-4.33,-12.83,-12.39,0,*56
1489557630.35,19813,10.19,73794.8,-4.33,-12.83,-12.39,0,*57
1489557631.59,19814,10.19,73792.8,-4.33,-12.83,-12.39,0,*50
1489557632.83,19815,10.13,73794.8,-4.29,-12.83,-12.39,0,*5A
1489557634.07,19816,10.19,73798.8,-4.33,-12.71,-12.29,0,*5E
1489557635.31,19817,10.13,73792.0,-4.33,-12.71,-12.39,0,*5E
1489557636.55,19818,10.13,73792.5,-4.33,-12.79,-12.39,0,*59
1489557637.8,19819,10.19,73796.0,-4.33,-12.71,-12.29,0,*51
1489557639.04,19820,10.19,73798.5,-4.33,-12.65,-12.29,0,*5E
1489557640.28,19821,10.19,73796.5,-4.29,-12.57,-12.29,0,*55
1489557641.53,19822,10.19,73796.5,-4.33,-12.53,-12.29,0,*59
1489557642.74,19823,10.19,73796.8,-4.33,-12.43,-12.25,0,*55
1489557643.95,19824,10.19,73796.8,-4.29,-12.43,-12.25,0,*59
1489557645.2,19825,10.13,73798.3,-4.33,-12.53,-12.29,0,*5E
1489557646.42,19826,10.19,73796.5,-4.29,-12.43,-12.39,0,*56
1489557647.63,19827,10.13,73798.5,-4.29,-12.39,-12.29,0,*5B
1489557648.88,19828,10.19,73800.3,-4.33,-12.25,-12.11,0,*59
1489557650.12,19829,10.19,73800.5,-4.33,-12.25,-12.11,0,*58
1489557651.36,19830,10.13,73798.3,-4.29,-12.15,-12.25,0,*5F
1489557652.59,19831,10.19,73800.3,-4.29,-12.29,-12.29,0,*5D
1489557653.81,19832,10.13,73802.3,-4.33,-12.25,-12.29,0,*59
1489557655.08,19833,10.19,73798.5,-4.29,-12.07,-12.07,0,*5F
1489557656.32,19834,10.19,73796.0,-4.29,-12.15,-12.29,0,*57
1489557657.57,19835,10.19,73792.8,-4.33,-12.15,-12.29,0,*5D
1489557658.81,19836,10.13,73796.0,-4.33,-12.07,-12.25,0,*51
1489557660.08,19837,10.13,73792.5,-4.33,-11.93,-12.11,0,*59
1489557661.32,19838,10.19,73800.8,-4.29,-11.97,-12.25,0,*5E
1489557662.58,19839,10.13,73796.0,-4.33,-11.97,-12.15,0,*57
1489557663.85,19840,10.19,73794.0,-4.29,-11.97,-12.15,0,*52
1489557665.09,19841,10.19,73794.5,-4.29,-11.97,-12.25,0,*50
1489557666.34,19842,10.19,73798.8,-4.29,-11.93,-12.25,0,*57
1489557667.6,19843,10.13,73796.3,-4.29,-11.85,-12.15,0,*52
1489557668.87,19844,10.13,73798.3,-4.29,-11.85,-12.15,0,*55
1489557670.11,19845,10.13,73796.0,-4.29,-11.85,-12.25,0,*57
1489557671.37,19846,10.13,73790.8,-4.29,-11.73,-12.15,0,*5E
1489557672.61,19847,10.13,73788.8,-4.29,-11.81,-12.25,0,*51
1489557673.87,19848,10.13,73790.5,-4.29,-11.73,-12.15,0,*50
1489557675.14,19849,10.13,73792.5,-4.29,-11.67,-12.15,0,*54
1489557676.41,19850,10.19,73798.0,-4.33,-11.59,-12.07,0,*59
1489557677.67,19851,10.13,73790.0,-4.29,-11.73,-12.11,0,*5C
1489557678.94,19852,10.13,73790.0,-4.33,-11.55,-12.11,0,*50
1489557680.21,19853,10.13,73784.3,-4.29,-11.59,-12.07,0,*51
1489557681.48,19854,10.13,73784.3,-4.29,-11.59,-12.07,0,*56
1489557682.77,19855,10.13,73788.0,-4.27,-11.55,-12.11,0,*52
1489557684.07,19856,10.13,73788.5,-4.27,-11.55,-12.11,0,*51
1489557685.34,19857,10.13,73784.0,-4.27,-11.63,-12.21,0,*56
1489557686.63,19858,10.13,73792.3,-4.27,-11.63,-12.11,0,*5A
1489557687.9,19859,10.13,73798.3,-4.27,-11.55,-12.21,0,*5D
1489557689.17,19860,10.13,73798.5,-4.27,-11.51,-12.21,0,*53
1489557690.43,19861,10.19,73802.3,-4.27,-11.51,-12.21,0,*52
1489557691.7,19862,10.13,73802.5,-4.27,-11.63,-12.21,0,*50
1489557693.0,19863,10.13,73800.5,-4.27,-11.55,-12.35,0,*51
1489557694.26,19864,10.13,73800.0,-4.27,-11.51,-12.21,0,*57
1489557695.51,19865,10.13,73802.0,-4.25,-11.55,-12.21,0,*50
1489557696.8,19866,10.19,73800.8,-4.27,-11.51,-12.11,0,*56
1489557698.06,19867,10.19,73804.3,-4.25,-11.51,-12.11,0,*55
1489557699.32,19868,10.13,73806.3,-4.27,-11.51,-12.21,0,*5B
1489557700.57,19869,10.19,73810.8,-4.25,-11.55,-12.21,0,*5C
1489557701.84,19870,10.19,73806.3,-4.25,-11.55,-12.35,0,*51
1489557703.1,19871,10.13,73806.3,-4.25,-11.51,-12.35,0,*54
1489557704.37,19872,10.19,73804.5,-4.27,-11.55,-12.25,0,*50
1489557705.64,19873,10.19,73802.5,-4.25,-11.55,-12.35,0,*52
1489557706.91,19874,10.19,73802.8,-4.25,-11.63,-12.35,0,*50
1489557708.17,19875,10.19,73804.0,-4.27,-11.51,-12.25,0,*53
1489557709.47,19876,10.19,73806.8,-4.27,-11.55,-12.35,0,*55
1489557710.7,19877,10.13,73802.3,-4.25,-11.51,-12.25,0,*53
1489557711.95,19878,10.13,73806.3,-4.25,-11.63,-12.47,0,*59
1489557713.22,19879,10.19,73810.5,-4.25,-11.63,-12.35,0,*5D
1489557714.48,19880,10.13,73802.0,-4.27,-11.55,-12.39,0,*50
1489557715.75,19881,10.13,73800.3,-4.25,-11.51,-12.35,0,*5B
1489557716.99,19882,10.13,73802.5,-4.25,-11.63,-12.47,0,*5C
1489557718.24,19883,10.13,73804.0,-4.25,-11.63,-12.39,0,*54
1489557719.51,19884,10.13,73802.0,-4.25,-11.63,-12.35,0,*5F
1489557720.75,19885,10.13,73800.5,-4.25,-11.67,-12.47,0,*5F
1489557721.99,19886,10.19,73802.5,-4.25,-11.77,-12.47,0,*5D
1489557723.23,19887,10.19,73810.5,-4.25,-11.67,-12.39,0,*54
1489557724.49,19888,10.19,73810.5,-4.25,-11.51,-12.35,0,*52
1489557725.76,19889,10.13,73802.3,-4.23,-11.59,-12.29,0,*50
1489557727.02,19890,10.19,73802.0,-4.23,-11.59,-12.43,0,*54
1489557728.28,19891,10.19,73802.5,-4.23,-11.73,-12.43,0,*5D
1489557729.57,19892,10.13,73802.5,-4.23,-11.73,-12.35,0,*5F
1489557730.86,19893,10.13,73794.8,-4.23,-11.73,-12.35,0,*5E
1489557732.12,19894,10.13,73800.5,-4.23,-11.73,-12.43,0,*58
1489557733.41,19895,10.19,73802.0,-4.23,-11.73,-12.35,0,*58
1489557734.67,19896,10.13,73798.0,-4.23,-11.85,-12.43,0,*53
1489557735.93,19897,10.19,73806.0,-4.23,-11.77,-12.43,0,*5F
1489557737.2,19898,10.19,73808.8,-4.23,-11.85,-12.47,0,*59
1489557738.44,19899,10.13,73808.3,-4.21,-11.77,-12.47,0,*57
1489557739.7,19900,10.13,73806.8,-4.23,-11.89,-12.43,0,*51
1489557740.96,19901,10.19,73808.8,-4.23,-11.73,-12.43,0,*55
1489557742.23,19902,10.19,73806.3,-4.23,-11.85,-12.43,0,*5F
1489557743.49,19903,10.19,73806.3,-4.23,-12.03,-12.57,0,*56
1489557744.75,19904,10.19,73814.3,-4.23,-11.89,-12.43,0,*55
1489557745.99,19905,10.13,73806.8,-4.21,-11.89,-12.43,0,*56
1489557747.29,19906,10.19,73810.0,-4.23,-11.89,-12.35,0,*56
1489557748.55,19907,10.19,73808.3,-4.23,-11.85,-12.29,0,*56
1489557749.79,19908,10.19,73808.3,-4.21,-11.77,-12.29,0,*56
1489557751.07,19909,10.19,73806.0,-4.21,-11.89,-12.35,0,*5B
1489557752.31,19910,10.13,73804.8,-4.21,-11.97,-12.43,0,*5D
1489557753.55,19911,10.19,73804.8,-4.21,-11.89,-12.29,0,*5F
1489557754.82,19912,10.19,73806.8,-4.21,-11.85,-12.35,0,*5D
1489557756.07,19913,10.19,73806.3,-4.21,-12.03,-12.35,0,*51
1489557757.33,19914,10.13,73800.8,-4.23,-11.97,-12.21,0,*5F
1489557758.57,19915,10.13,73806.8,-4.23,-12.03,-12.29,0,*58
1489557759.86,19916,10.19,73808.3,-4.19,-11.93,-12.15,0,*57
1489557761.1,19917,10.19,73808.3,-4.19,-12.03,-12.25,0,*5F
1489557762.35,19918,10.13,73804.0,-4.21,-11.97,-12.29,0,*59
1489557763.59,19919,10.13,73800.0,-4.21,-12.15,-12.43,0,*5D
1489557764.86,19920,10.13,73802.8,-4.19,-12.11,-12.29,0,*54
1489557766.12,19921,10.19,73810.0,-4.19,-11.97,-12.25,0,*54
1489557767.39,19922,10.13,73806.0,-4.19,-12.11,-12.25,0,*5A
1489557768.65,19923,10.19,73806.8,-4.19,-12.03,-12.15,0,*5B
1489557769.92,19924,10.19,73810.8,-4.19,-12.11,-12.25,0,*5C
1489557771.15,19925,10.19,73812.3,-4.19,-12.03,-12.25,0,*5E
1489557772.44,19926,10.13,73810.8,-4.19,-12.11,-12.15,0,*5D
1489557773.74,19927,10.13,73808.5,-4.19,-12.11,-12.11,0,*58
1489557775.0,19928,10.19,73808.8,-4.19,-12.25,-12.15,0,*54
1489557776.29,19929,10.13,73808.0,-4.19,-12.15,-12.11,0,*52
1489557777.54,19930,10.13,73802.3,-4.19,-12.25,-12.25,0,*5E
1489557778.8,19931,10.13,73802.5,-4.19,-12.15,-12.03,0,*58
1489557780.1,19932,10.13,73796.5,-4.19,-12.15,-12.11,0,*58
1489557781.37,19933,10.19,73802.3,-4.17,-12.11,-12.07,0,*54
1489557782.61,19934,10.19,73808.5,-4.17,-12.35,-12.25,0,*55
1489557783.85,19935,10.19,73800.5,-4.19,-12.39,-12.03,0,*52
1489557785.09,19936,10.19,73796.5,-4.19,-12.29,-12.25,0,*54
1489557786.33,19937,10.19,73802.3,-4.19,-12.43,-12.25,0,*59
1489557787.57,19938,10.13,73798.8,-4.17,-12.39,-12.11,0,*52
1489557788.83,19939,10.19,73796.8,-4.19,-12.57,-12.39,0,*5F
1489557790.07,19940,10.19,73798.5,-4.17,-12.61,-12.25,0,*57
1489557791.32,19941,10.19,73804.3,-4.17,-12.53,-12.25,0,*57
1489557792.59,19942,10.13,73802.3,-4.17,-12.53,-12.11,0,*53
1489557793.83,19943,10.13,73796.5,-4.17,-12.39,-11.97,0,*53
1489557795.09,19944,10.19,73798.5,-4.19,-12.43,-12.11,0,*5A
1489557796.36,19945,10.13,73794.0,-4.17,-12.53,-12.07,0,*53
1489557797.63,19946,10.13,73802.8,-4.17,-12.53,-12.07,0,*50
1489557798.93,19947,10.13,73798.8,-4.19,-12.53,-12.11,0,*58
1489557800.2,19948,10.19,73804.8,-4.17,-12.53,-11.93,0,*50
1489557801.5,19949,10.13,73806.3,-4.19,-12.53,-11.93,0,*5F
1489557802.77,19950,10.19,73798.3,-4.17,-12.53,-11.93,0,*59
1489557804.04,19951,10.19,73796.5,-4.17,-12.53,-11.89,0,*53
1489557805.32,19952,10.19,73806.5,-4.17,-12.53,-11.89,0,*50
1489557806.58,19953,10.19,73802.8,-4.17,-12.61,-11.93,0,*5B
1489557807.88,19954,10.13,73800.3,-4.15,-12.75,-11.93,0,*5B
1489557809.14,19955,10.19,73800.0,-4.17,-12.83,-11.97,0,*55
1489557810.41,19956,10.19,73802.8,-4.17,-12.65,-11.97,0,*5E
1489557811.68,19957,10.13,73804.5,-4.17,-12.65,-11.89,0,*50
1489557812.97,19958,10.19,73810.3,-4.15,-12.65,-11.89,0,*5D
1489557814.24,19959,10.19,73806.8,-4.17,-12.75,-11.89,0,*5F
1489557815.51,19960,10.13,73802.0,-4.17,-12.83,-11.93,0,*57
1489557816.8,19961,10.13,73800.5,-4.15,-12.75,-11.77,0,*57
1489557818.08,19962,10.19,73806.3,-4.15,-12.83,-11.81,0,*54
1489557819.35,19963,10.19,73804.3,-4.17,-12.75,-11.77,0,*57
1489557820.62,19964,10.19,73804.3,-4.17,-12.79,-11.67,0,*5D
1489557821.91,19965,10.19,73804.3,-4.15,-12.75,-11.63,0,*56
1489557823.21,19966,10.19,73804.3,-4.15,-12.65,-11.63,0,*54
1489557824.47,19967,10.19,73800.3,-4.13,-12.71,-11.51,0,*57
1489557825.74,19968,10.19,73804.3,-4.13,-12.75,-11.59,0,*54
1489557827.03,19969,10.19,73810.5,-4.15,-12.65,-11.51,0,*5A
1489557828.32,19970,10.19,73804.5,-4.15,-12.65,-11.51,0,*52
1489557829.58,19971,10.19,73802.3,-4.11,-12.75,-11.45,0,*53
1489557830.85,19972,10.19,73804.8,-4.15,-12.93,-11.51,0,*59
1489557832.14,19973,10.13,73804.0,-4.15,-12.79,-11.51,0,*5C
1489557833.38,19974,10.19,73802.3,-4.13,-12.75,-11.45,0,*54
1489557834.63,19975,10.19,73810.3,-4.13,-12.79,-11.45,0,*59
1489557835.86,19976,10.19,73804.8,-4.13,-12.89,-11.51,0,*50
1489557837.1,19977,10.13,73798.8,-4.13,-12.89,-11.51,0,*51
1489557838.35,19978,10.13,73802.5,-4.13,-12.75,-11.45,0,*58
1489557839.59,19979,10.19,73804.0,-4.13,-12.79,-11.45,0,*55
1489557840.86,19980,10.19,73804.5,-4.13,-12.79,-11.37,0,*56
1489557842.12,19981,10.13,73802.0,-4.11,-12.89,-11.37,0,*5A
1489557843.37,19982,10.19,73804.3,-4.11,-12.89,-11.33,0,*5D
1489557844.61,19983,10.19,73802.5,-4.13,-12.79,-11.23,0,*50
1489557845.85,19984,10.19,73804.8,-4.13,-12.75,-11.23,0,*5B
1489557847.12,19985,10.19,73804.5,-4.11,-12.79,-11.23,0,*54
1489557848.38,19986,10.13,73806.5,-4.11,-12.79,-11.19,0,*5E
1489557849.61,19987,10.13,73804.3,-4.09,-12.75,-11.19,0,*5A
1489557850.87,19988,10.13,73806.3,-4.11,-12.79,-11.19,0,*50
1489557852.14,19989,10.19,73804.5,-4.11,-12.75,-11.11,0,*55
1489557853.37,19990,10.19,73804.8,-4.09,-12.79,-11.11,0,*58
1489557854.63,19991,10.13,73806.8,-4.11,-12.75,-11.11,0,*5C
1489557855.9,19992,10.13,73804.3,-4.11,-12.71,-10.97,0,*54
1489557857.17,19993,10.13,73804.8,-4.11,-12.75,-10.97,0,*51
1489557858.41,19994,10.13,73806.5,-4.09,-12.71,-10.97,0,*5B
1489557859.65,19995,10.19,73806.3,-4.09,-12.71,-10.97,0,*5A
1489557860.89,19996,10.13,73800.8,-4.09,-12.71,-10.89,0,*56
1489557862.15,19997,10.13,73804.8,-4.09,-12.71,-10.79,0,*58
1489557863.39,19998,10.13,73806.3,-4.09,-12.71,-10.89,0,*58
1489557864.65,19999,10.19,73806.8,-4.09,-12.61,-10.75,0,*5B
1489557865.92,20000,10.19,73806.8,-4.05,-12.65,-10.75,0,*50
1489557867.18,20001,10.19,73806.8,-4.05,-12.57,-10.71,0,*54
1489557868.43,20002,10.13,73802.0,-4.05,-12.65,-10.57,0,*52
1489557869.67,20003,10.19,73804.0,-4.05,-12.57,-10.57,0,*52
1489557870.89,20004,10.19,73800.8,-4.05,-12.43,-10.57,0,*50
1489557872.1,20005,10.19,73800.5,-4.03,-12.47,-10.53,0,*57
1489557873.35,20006,10.19,73792.3,-4.05,-12.53,-10.57,0,*53
1489557874.59,20007,10.13,73788.8,-4.05,-12.65,-10.57,0,*57
1489557875.8,20008,10.19,73794.8,-4.03,-12.47,-10.53,0,*5A
1489557877.05,20009,10.19,73800.0,-4.05,-12.53,-10.57,0,*5C
1489557878.26,20010,10.19,73794.5,-4.03,-12.47,-10.53,0,*53
1489557879.5,20011,10.19,73796.8,-4.03,-12.53,-10.53,0,*57
1489557880.74,20012,10.13,73800.0,-4.03,-12.65,-10.53,0,*51
1489557881.98,20013,10.19,73802.3,-4.03,-12.53,-10.53,0,*55
1489557883.24,20014,10.19,73792.3,-4.03,-12.79,-10.71,0,*5A
1489557884.48,20015,10.19,73802.8,-4.03,-12.65,-10.57,0,*52
1489557885.72,20016,10.19,73802.0,-4.03,-12.65,-10.57,0,*51
1489557886.95,20017,10.13,73800.0,-4.03,-12.61,-10.53,0,*50
1489557888.19,20018,10.13,73802.0,-4.03,-12.53,-10.45,0,*59
1489557889.44,20019,10.19,73806.5,-4.03,-12.53,-10.45,0,*58
1489557890.68,20020,10.19,73804.5,-4.03,-12.39,-10.41,0,*5A
1489557891.89,20021,10.13,73802.5,-4.03,-12.47,-10.45,0,*56
1489557893.14,20022,10.19,73806.3,-4.03,-12.35,-10.27,0,*54
1489557894.35,20023,10.13,73802.0,-4.05,-12.43,-10.45,0,*56
1489557895.57,20024,10.13,73800.0,-4.03,-12.39,-10.27,0,*5E
1489557896.81,20025,10.19,73802.8,-4.03,-12.35,-10.27,0,*53
1489557898.06,20026,10.13,73796.0,-4.01,-12.25,-10.27,0,*53
1489557899.31,20027,10.13,73802.0,-4.01,-12.25,-10.31,0,*55
1489557900.55,20028,10.19,73800.0,-4.01,-12.47,-10.31,0,*5E
1489557901.79,20029,10.19,73802.3,-4.01,-12.39,-10.31,0,*56
1489557903.04,20030,10.13,73804.3,-4.01,-12.25,-10.19,0,*59
1489557904.29,20031,10.19,73804.5,-4.01,-12.21,-10.27,0,*51
1489557905.54,20032,10.13,73802.8,-4.01,-12.25,-10.27,0,*56
1489557906.79,20033,10.19,73808.0,-4.01,-12.25,-10.19,0,*5A
1489557908.06,20034,10.13,73804.8,-4.01,-12.11,-10.19,0,*5A
1489557909.31,20035,10.19,73804.5,-3.99,-12.07,-10.15,0,*56
1489557910.55,20036,10.19,73804.8,-3.99,-12.07,-10.09,0,*58
1489557911.82,20037,10.19,73804.5,-4.01,-12.11,-10.15,0,*55
1489557913.09,20038,10.13,73806.3,-4.01,-12.11,-10.15,0,*5A
1489557914.34,20039,10.13,73802.8,-3.99,-12.07,-10.09,0,*57
1489557915.6,20040,10.13,73806.3,-4.01,-11.97,-10.05,0,*59
1489557916.81,20041,10.19,73806.3,-3.99,-12.03,-9.97,0,*63
1489557918.05,20042,10.13,73804.5,-3.99,-12.07,-10.09,0,*5B
1489557919.26,20043,10.13,73804.8,-3.99,-12.03,-10.09,0,*5E
1489557920.52,20044,10.19,73814.8,-3.99,-11.93,-10.01,0,*5B
1489557921.74,20045,10.13,73810.3,-3.99,-12.03,-10.01,0,*50
1489557922.95,20046,10.13,73810.8,-3.99,-12.03,-10.01,0,*53
1489557924.21,20047,10.13,73814.3,-3.99,-11.93,-10.01,0,*58
1489557925.42,20048,10.13,73810.3,-3.99,-12.03,-10.09,0,*55
1489557926.66,20049,10.13,73814.5,-3.99,-11.89,-9.97,0,*6A
1489557927.89,20050,10.19,73816.5,-3.99,-11.89,-9.97,0,*62
1489557929.15,20051,10.13,73810.8,-3.97,-11.89,-9.97,0,*6D
1489557930.44,20052,10.13,73808.0,-3.97,-11.81,-9.83,0,*63
1489557931.72,20053,10.13,73816.3,-3.97,-11.81,-9.83,0,*62
1489557932.98,20054,10.19,73810.0,-3.97,-11.77,-9.93,0,*6D
1489557934.24,20055,10.19,73818.8,-3.97,-11.89,-9.89,0,*66
1489557935.47,20056,10.13,73818.0,-3.95,-11.67,-9.89,0,*67
1489557936.71,20057,10.19,73816.0,-3.95,-11.67,-9.89,0,*66
1489557937.97,20058,10.13,73808.3,-3.97,-11.73,-9.93,0,*65
1489557939.2,20059,10.13,73804.8,-3.95,-11.67,-9.79,0,*67
1489557940.43,20060,10.19,73812.3,-3.95,-11.55,-9.75,0,*60
1489557941.66,20061,10.13,73818.5,-3.95,-11.67,-9.89,0,*63
1489557942.9,20062,10.13,73816.5,-3.95,-11.67,-9.89,0,*60
1489557944.13,20063,10.13,73798.3,-3.95,-11.67,-9.97,0,*6E
1489557945.36,20064,10.13,73804.5,-3.95,-11.73,-9.97,0,*6C
1489557946.59,20065,10.19,73812.8,-3.95,-11.67,-9.93,0,*6C
1489557947.86,20066,10.19,73804.5,-3.97,-11.73,-10.01,0,*5B
1489557949.12,20067,10.19,73808.5,-3.97,-11.77,-9.97,0,*69
1489557950.35,20068,10.19,73800.8,-3.95,-11.73,-10.05,0,*53
1489557951.59,20069,10.13,73802.5,-3.95,-11.67,-9.93,0,*60
1489557952.83,20070,10.19,73802.8,-3.95,-11.67,-10.05,0,*5F
1489557954.08,20071,10.13,73800.3,-3.93,-11.67,-9.97,0,*6B
1489557955.34,20072,10.19,73808.0,-3.93,-11.59,-9.93,0,*61
1489557956.6,20073,10.13,73806.3,-3.93,-11.55,-9.89,0,*67
1489557957.83,20074,10.13,73806.5,-3.93,-11.45,-9.89,0,*61
1489557959.07,20075,10.13,73804.3,-3.93,-11.41,-9.79,0,*6B
1489557960.3,20076,10.13,73800.8,-3.93,-11.45,-9.89,0,*63
1489557961.53,20077,10.13,73800.3,-3.93,-11.41,-9.89,0,*66
1489557962.8,20078,10.13,73808.5,-3.93,-11.59,-10.05,0,*5C
1489557964.05,20079,10.19,73810.0,-3.93,-11.55,-9.97,0,*62
1489557965.28,20080,10.13,73806.0,-3.91,-11.51,-9.93,0,*66
1489557966.54,20081,10.13,73802.8,-3.93,-11.55,-9.97,0,*65
1489557967.8,20082,10.19,73806.3,-3.91,-11.29,-9.83,0,*6A
1489557969.03,20083,10.19,73798.3,-3.93,-11.45,-9.89,0,*69
1489557970.24,20084,10.13,73800.3,-3.91,-11.41,-9.93,0,*63
1489557971.47,20085,10.13,73816.8,-3.91,-11.29,-9.89,0,*67
1489557972.68,20086,10.13,73806.3,-3.91,-11.23,-9.89,0,*6E
1489557973.94,20087,10.13,73800.3,-3.91,-11.29,-9.83,0,*6F
1489557975.16,20088,10.13,73796.8,-3.91,-11.37,-9.89,0,*65
1489557976.39,20089,10.13,73798.3,-3.91,-11.37,-9.93,0,*6F
1489557977.62,20090,10.19,73808.0,-3.91,-11.37,-9.89,0,*6C
1489557978.82,20091,10.19,73806.8,-3.91,-11.23,-9.89,0,*68
1489557980.05,20092,10.13,73814.0,-3.91,-11.37,-9.93,0,*65
1489557981.28,20093,10.13,73802.3,-3.91,-11.29,-9.89,0,*60
1489557982.49,20094,10.19,73806.0,-3.91,-11.23,-9.89,0,*6D
1489557983.69,20095,10.19,73808.0,-3.91,-11.23,-9.75,0,*6F
1489557984.92,20096,10.13,73810.5,-3.91,-11.23,-9.83,0,*65
1489557986.16,20097,10.19,73814.0,-3.91,-11.23,-9.83,0,*64
1489557987.36,20098,10.19,73818.8,-3.91,-11.11,-9.75,0,*63
1489557988.62,20099,10.13,73808.8,-3.89,-11.23,-9.83,0,*63
1489557989.85,20100,10.13,73804.3,-3.91,-11.23,-9.83,0,*6B
1489557991.08,20101,10.13,73810.0,-3.89,-11.11,-9.75,0,*6B
1489557992.34,20102,10.13,73808.0,-3.89,-11.11,-9.61,0,*6D
1489557993.57,20103,10.13,73810.0,-3.89,-11.11,-9.75,0,*69
1489557994.83,20104,10.13,73812.5,-3.89,-11.15,-9.83,0,*63
1489557996.09,20105,10.13,73814.0,-3.89,-11.11,-9.83,0,*66
1489557997.32,20106,10.13,73808.8,-3.89,-11.11,-9.89,0,*6F
1489557998.55,20107,10.13,73814.5,-3.89,-11.15,-9.75,0,*69
1489557999.81,20108,10.13,73816.0,-3.89,-11.11,-9.83,0,*6B
1489558001.04,20109,10.13,73816.3,-3.89,-11.11,-9.89,0,*60
1489558002.25,20110,10.13,73814.0,-3.87,-10.97,-9.71,0,*6E
1489558003.49,20111,10.13,73806.0,-3.89,-11.01,-9.75,0,*6B
1489558004.71,20112,10.13,73804.8,-3.87,-10.93,-9.57,0,*6C
1489558005.95,20113,10.13,73810.0,-3.89,-11.01,-9.71,0,*6D
1489558007.19,20114,10.13,73812.3,-3.89,-11.01,-9.71,0,*6A
1489558008.42,20115,10.13,73804.5,-3.87,-11.01,-9.61,0,*64
1489558009.63,20116,10.13,73808.5,-3.87,-10.97,-9.71,0,*68
1489558010.86,20117,10.13,73810.0,-3.87,-10.85,-9.57,0,*6E
1489558012.11,20118,10.13,73814.0,-3.89,-10.85,-9.57,0,*6F
1489558013.34,20119,10.13,73808.3,-3.87,-10.93,-9.53,0,*63
1489558014.56,20120,10.13,73812.3,-3.87,-10.85,-9.57,0,*6A
1489558015.82,20121,10.13,73804.3,-3.87,-10.79,-9.45,0,*6B
1489558017.07,20122,10.13,73806.8,-3.83,-10.79,-9.53,0,*6B
1489558018.35,20123,10.13,73818.3,-3.81,-10.79,-9.53,0,*68
1489558019.58,20124,10.13,73814.8,-3.83,-10.89,-9.61,0,*63
1489558020.81,20125,10.13,73814.0,-3.83,-10.89,-9.49,0,*68
1489558022.06,20126,10.13,73804.0,-3.83,-10.75,-9.53,0,*63
1489558023.32,20127,10.13,73808.5,-3.83,-10.75,-9.53,0,*62
1489558024.58,20128,10.13,73816.0,-3.83,-10.75,-9.53,0,*6D
1489558025.83,20129,10.13,73812.3,-3.83,-10.63,-9.41,0,*68
1489558027.09,20130,10.13,73796.8,-3.83,-10.63,-9.41,0,*60
1489558028.34,20131,10.13,73790.5,-3.83,-10.63,-9.41,0,*61
1489558029.6,20132,10.13,73808.0,-3.83,-10.75,-9.49,0,*6D
1489558030.85,20133,10.13,73806.3,-3.83,-10.67,-9.49,0,*6F
1489558032.14,20134,10.13,73808.5,-3.81,-10.63,-9.41,0,*66
1489558033.37,20135,10.13,73810.5,-3.83,-10.57,-9.37,0,*63
1489558034.62,20136,10.13,73812.3,-3.81,-10.49,-9.37,0,*6D
1489558035.85,20137,10.13,73812.8,-3.83,-10.49,-9.37,0,*6E
1489558037.1,20138,10.13,73810.0,-3.81,-10.57,-9.41,0,*6D
1489558038.34,20139,10.13,73812.3,-3.83,-10.57,-9.37,0,*6F
1489558039.56,20140,10.13,73802.3,-3.83,-10.49,-9.41,0,*6F
1489558040.79,20141,10.13,73800.5,-3.83,-10.49,-9.41,0,*6E
1489558042.04,20142,10.13,73802.8,-3.81,-10.49,-9.37,0,*6E
1489558043.27,20143,10.13,73798.8,-3.83,-10.57,-9.37,0,*62
1489558044.53,20144,10.13,73800.5,-3.81,-10.45,-9.37,0,*64
1489558045.73,20145,10.13,73808.3,-3.83,-10.45,-9.27,0,*66
1489558046.98,20146,10.13,73814.0,-3.81,-10.45,-9.37,0,*66
1489558048.23,20147,10.13,73812.5,-3.81,-10.45,-9.41,0,*66
1489558049.46,20148,10.13,73798.0,-3.81,-10.45,-9.27,0,*69
1489558050.69,20149,10.13,73800.3,-3.81,-10.45,-9.27,0,*68
1489558051.92,20150,10.13,73804.5,-3.81,-10.35,-9.23,0,*63
1489558053.15,20151,10.13,73814.8,-3.81,-10.35,-9.27,0,*66
1489558054.4,20152,10.13,73814.3,-3.81,-10.23,-9.15,0,*63
1489558055.63,20153,10.13,73812.3,-3.81,-10.31,-9.27,0,*60
1489558056.86,20154,10.13,73822.0,-3.81,-10.23,-9.23,0,*60
1489558058.08,20155,10.13,73814.5,-3.81,-10.23,-9.23,0,*61
1489558059.28,20156,10.13,73814.5,-3.79,-10.19,-9.23,0,*6C
1489558060.51,20157,10.13,73826.5,-3.81,-10.23,-9.27,0,*67
1489558061.74,20158,10.13,73814.0,-3.79,-10.19,-9.11,0,*63
1489558062.95,20159,10.13,73794.5,-3.79,-10.15,-9.19,0,*66
1489558064.17,20160,10.13,73792.8,-3.79,-10.05,-9.11,0,*65
1489558065.36,20161,10.13,73796.0,-3.79,-10.05,-9.05,0,*61
1489558066.59,20162,10.13,73802.0,-3.77,-10.15,-9.19,0,*60
1489558067.79,20163,10.13,73792.3,-3.79,-10.15,-9.19,0,*6F
1489558068.99,20164,10.13,73792.3,-3.79,-10.15,-9.23,0,*61
1489558070.18,20165,10.13,73800.5,-3.79,-10.05,-9.19,0,*68
1489558071.4,20166,10.13,73796.8,-3.79,-9.93,-9.11,0,*54
1489558072.61,20167,10.13,73796.3,-3.77,-10.05,-9.19,0,*64
1489558073.81,20168,10.13,73794.5,-3.79,-10.15,-9.19,0,*64
1489558075.03,20169,10.19,73798.3,-3.77,-10.05,-9.31,0,*60
1489558076.22,20170,10.13,73802.0,-3.79,-10.05,-9.23,0,*65
1489558077.43,20171,10.13,73804.0,-3.77,-10.05,-9.19,0,*63
1489558078.63,20172,10.19,73800.3,-3.79,-10.01,-9.19,0,*6A
1489558079.82,20173,10.13,73806.8,-3.79,-10.05,-9.31,0,*65
1489558081.0,20174,10.13,73814.3,-3.75,-9.89,-9.19,0,*58
1489558082.19,20175,10.13,73806.0,-3.79,-9.93,-9.31,0,*54
1489558083.41,20176,10.13,73794.8,-3.77,-9.79,-9.19,0,*57
1489558084.62,20177,10.19,73780.0,-3.77,-9.89,-9.19,0,*59
1489558085.81,20178,10.13,73782.3,-3.79,-10.01,-9.31,0,*6A
1489558087.04,20179,10.13,73788.0,-3.79,-10.15,-9.37,0,*68
1489558088.23,20180,10.13,73792.3,-3.75,-10.01,-9.31,0,*61
1489558089.45,20181,10.13,73802.0,-3.77,-10.01,-9.23,0,*61
1489558090.7,20182,10.13,73800.3,-3.77,-10.05,-9.37,0,*63
1489558091.95,20183,10.19,73798.3,-3.77,-10.15,-9.49,0,*6A
1489558093.2,20184,10.13,73800.3,-3.77,-10.05,-9.37,0,*65
1489558094.42,20185,10.19,73816.8,-3.79,-10.01,-9.37,0,*6E
1489558095.67,20186,10.13,73814.0,-3.77,-10.01,-9.37,0,*63
1489558096.88,20187,10.13,73802.3,-3.77,-9.89,-9.31,0,*5C
1489558098.08,20188,10.13,73808.3,-3.77,-9.89,-9.31,0,*53
1489558099.33,20189,10.13,73804.0,-3.77,-9.75,-9.37,0,*57
1489558100.58,20190,10.13,73796.8,-3.77,-10.01,-9.37,0,*64
1489558101.83,20191,10.13,73792.3,-3.77,-10.01,-9.49,0,*6C